Weather Roundup
Issued by NWS

Home | Current Version | Previous Version | Graphics & Text | Print | Product List | Glossary Off
Versions: 1 2 3 4 5 6 7 8 9 10 11 12 13 14 15 16 17 18 19 20 21 22 23 24 25 26 27 28 29 30 31 32 33 34 35 36 37 38 39 40 41 42 43 44 45 46 47 48 49 50

000
NZUS93 KARX 300659
HRRWXR

CURRENT HOURLY OBSERVATIONS ACROSS
MUCH OF THE UPPER MISSISSIPPI VALLEY
NATIONAL WEATHER SERVICE LA CROSSE WI
200 AM CDT SAT MAY 30 2015


...SOUTHEAST MINNESOTA...


CITY           SKY/WX    TMP DP  RH WIND       PRES   REMARKS
ROCHESTER      LGT RAIN  54  53  97 N17       30.01R
ROCHESTER/MAYO CLOUDY    54  54 100 NW12G17   30.01R
WINONA         DRIZZLE   59  57  94 N8        29.97R
AUSTIN         CLOUDY    54  52  94 N12G22    30.01R
ALBERT LEA     CLOUDY    54  54 100 N15       30.03R
DODGE CENTER   CLOUDY    54  52  94 N16G22    30.02R
PRESTON        CLOUDY    57  55  95 N14       29.97S
OWATONNA       CLOUDY    54  50  87 N13       30.04R
FARIBAULT      CLOUDY    54  52  94 N13       30.06R
$$

...ELSEWHERE IN MINNESOTA...


CITY           SKY/WX    TMP DP  RH WIND       PRES   REMARKS
MINNEAPOLIS    MOCLDY    53  45  74 N23G29    30.07S
INTNL FALLS    MOCLDY    42  33  70 N8        30.22R
DULUTH         MOCLDY    46  37  71 N6        30.12R
RED WING       CLOUDY    54  52  94 N12G22    30.02R
REDWOOD FALLS  CLEAR     49  45  86 N10       30.14R
MANKATO        CLOUDY    54  46  76 N17       30.08R
WORTHINGTON    PTCLDY    48  41  76 N20       30.13R
FAIRMONT       CLOUDY    52  45  76 N20       30.08R
$$

...SOUTHWEST WISCONSIN...


CITY           SKY/WX    TMP DP  RH WIND       PRES   REMARKS
LA CROSSE      HVY RAIN  63  60  90 N14       29.92R FOG
PRAIRIE DU CHI LGT RAIN  66  63  89 CALM      29.90F
BOSCOBEL       CLOUDY    67  65  93 CALM      29.90S
LONE ROCK      CLOUDY    67  64  90 CALM      29.91S
PLATTEVILLE    CLOUDY    68  65  89 SW8       29.93S
FORT MC COY    CLOUDY    64  63  96 CALM      29.92S
CAMP DOUGLAS   CLOUDY    64  64 100 CALM      29.90S
VIROQUA        CLOUDY    64  64 100 SE7       29.92S
WIS DELLS      HVY RAIN  64  62  94 CALM      29.92R
$$

...ELSEWHERE IN WISCONSIN...


CITY           SKY/WX    TMP DP  RH WIND       PRES   REMARKS
MILWAUKEE      CLOUDY    70  63  78 W3        29.92R
MADISON        CLOUDY    66  64  93 SE5       29.91S
GREEN BAY      LGT RAIN  65  62  90 N6        29.91R
EAU CLAIRE     CLOUDY    55  52  89 N13       30.01R
BLACK RVR FLS  HVY RAIN  60  60 100 N9G16     29.94R
MEDFORD        DRIZZLE   55  54  95 N7        29.98S
WAUSAU         LGT RAIN  58  56  93 N9        29.95R
WIS RAPIDS     HVY RAIN  62  59  90 NE12      29.93S FOG
MARSHFIELD     LGT RAIN  59  56  89 N12       29.95R FOG
RICE LAKE      CLOUDY    50  46  84 N12       30.08R
$$

...NORTHEAST IOWA...


CITY           SKY/WX    TMP DP  RH WIND       PRES   REMARKS
DECORAH        CLOUDY    64  64 100 NW5       29.91F
MASON CITY     LGT RAIN  55  53  93 N18G25    30.02R
CHARLES CITY   CLOUDY    59  59 100 N16G24    29.96S
OELWEIN        CLOUDY    64  64 100 W8        29.93F
$$

...ELSEWHERE IN IOWA...


CITY           SKY/WX    TMP DP  RH WIND       PRES   REMARKS
DES MOINES     CLOUDY    60  57  89 N12       29.97F
IOWA CITY      CLOUDY    67  63  87 SW5       29.95S
FORT DODGE     CLOUDY    54  48  82 N10G16    30.03F
$$

...NORTHERN ILLINOIS...


CITY           SKY/WX    TMP DP  RH WIND       PRES   REMARKS
CHICAGO-OHARE  MOCLDY    70  64  81 SW3       29.93S
CHICAGO-MIDWAY MOCLDY    73  65  75 SW8       29.94S
MOLINE         LGT RAIN  67  62  84 SW7       29.95S
ROCKFORD       CLOUDY    68  64  87 SW5       29.94F
PEORIA         RAIN      71  66  84 W6        29.99R
$$

NOTE: "FAIR" INDICATES FEW OR NO CLOUDS BELOW 12,000 FEET WITH NO
SIGNIFICANT WEATHER AND/OR OBSTRUCTIONS TO VISIBILITY. WIND
SPEEDS ARE IN MILES-PER-HOUR.



USA.gov is the U.S. government's official web portal to all federal, state and local government web resources and services.